Location: Finkum
(53.2783°N, 5.7558°E)
Time: 04:25:40
(UTC+00:00)

Daily predictions for brighter satellites

Satellite Brightness Start Highest point End
(mag) Time Altitude Azimuth Time Altitude Azimuth Time Altitude Azimuth
Lacrosse 4 Rocket 4.3 00:07:53 14° NE 00:07:53 14° NE 00:08:28 10° NE
Cosmos 1833 Rocket 4.3 00:02:26 10° NW 00:05:02 27° NW 00:05:02 27° NW
ATLAS CENTAUR R/B 4.3 00:07:01 10° WNW 00:11:21 29° WNW 00:11:21 29° WNW
Cosmos 2278 Rocket 3.4 00:19:53 37° ENE 00:19:53 37° ENE 00:23:24 10° NE
Cosmos 1655 Rocket 4.5 00:19:44 56° NE 00:19:44 56° NE 00:24:50 10° NNE
Cosmos 1943 Rocket 3.9 00:26:05 24° ENE 00:26:05 24° ENE 00:29:12 10° NE
CZ-2D R/B 3.7 00:33:39 10° NE 00:37:18 27° ENE 00:37:18 27° ENE
Resurs 1-4 Rocket 3.5 00:39:07 10° NNE 00:43:02 31° ENE 00:43:02 31° ENE
SL-16 R/B 3.2 00:48:15 47° E 00:49:10 51° ENE 00:55:13 10° N
Cosmos 1844 Rocket 4.5 00:55:39 21° NW 00:56:52 23° NNW 01:01:15 10° NNE
IDEFIX/ARIANE 42P 3.9 00:55:56 10° NNE 01:00:01 31° E 01:00:01 31° E
BREEZE-M DEB (TANK) 4.3 01:03:30 47° ESE 01:03:30 47° ESE 01:13:54 10° E
ATLAS 5 CENTAUR R/B 3.8 01:14:19 17° ENE 01:14:19 17° ENE 01:15:34 10° ENE
SeaSat 1 4.2 01:21:48 10° NE 01:25:29 23° ESE 01:25:29 23° ESE
Cosmos 2058 Rocket 4.4 01:31:49 37° N 01:31:49 37° N 01:34:37 10° N
Cosmos 2369 Rocket 3.4 01:36:58 30° ESE 01:37:27 31° ESE 01:42:19 10° NE
NPP 3.7 01:33:42 10° NNE 01:38:48 72° ENE 01:38:48 72° ENE
Lacrosse 5 3.2 01:41:26 31° ESE 01:41:26 31° ESE 01:44:48 10° ENE
Nadezhda 1 Rocket 3.9 01:34:01 10° N 01:40:15 82° E 01:40:49 73° SE
Meteor 1-27 4.5 01:41:56 59° NW 01:41:56 59° NW 01:46:51 10° N
Lacrosse 4 Rocket 3.1 01:44:01 28° NNW 01:44:01 28° NNW 01:46:52 10° NNE
Cosmos 773 Rocket 4.3 01:44:32 62° E 01:44:32 62° E 01:49:24 10° NNE
ATLAS 2AS CENTAUR R/B 4.1 01:38:18 10° WNW 01:45:04 37° N 01:51:31 10° ENE
Cosmos 2082 Rocket 4.3 01:41:50 10° NW 01:42:41 14° NW 01:42:41 14° NW
ADEOS II 2.3 01:42:22 10° NNE 01:47:36 61° ESE 01:47:38 61° ESE
AQUA 4.3 01:43:22 10° NNE 01:47:35 58° ENE 01:47:35 58° ENE
Cosmos 158 Rocket 4.3 01:48:46 59° ENE 01:48:46 59° ENE 01:53:08 10° NNE
Thor Agena Rocket 3.6 01:49:39 10° NNE 01:54:41 67° E 01:54:41 67° E
Cosmos 1656 Rocket 4.3 02:00:27 41° SE 02:01:08 43° ESE 02:06:19 10° NE
EO 1 Delta rocket 4.0 02:01:06 68° E 02:01:13 69° ENE 02:06:07 10° N
Cosmos 2278 Rocket 3.0 02:01:43 37° WNW 02:02:13 38° NW 02:07:30 10° NNE
CZ-2C R/B 3.9 01:59:08 10° SE 02:04:20 42° ENE 02:09:29 10° N
Cosmos 2285 Rocket 4.4 02:03:16 46° SSE 02:04:46 57° ESE 02:10:55 10° NNE
NOSS 3-4 (A) 4.4 01:58:32 10° NW 02:04:55 54° NNE 02:12:12 10° ESE
NOSS 3-4 (C) 4.4 01:58:38 10° NW 02:05:01 54° NNE 02:12:19 10° ESE
Cosmos 1943 Rocket 2.2 02:07:35 65° WNW 02:07:50 66° NW 02:13:28 10° NNE
Cosmos 2221 4.2 02:08:16 24° ESE 02:09:30 28° E 02:13:14 10° NNE
Cosmos 1386 Rocket 4.3 02:10:36 65° SSW 02:11:35 85° W 02:17:54 10° N
CZ-2D R/B 2.3 02:13:24 10° N 02:18:32 55° WNW 02:18:36 55° WNW
Cosmos 1346 Rocket 3.3 02:19:29 56° NE 02:19:29 56° NE 02:22:44 10° NNE
Cosmos 1812 4.1 02:19:19 31° E 02:19:35 32° E 02:22:58 10° NNE
COSMOS 2441 4.3 02:14:50 10° NNE 02:19:45 82° ESE 02:20:04 76° SSE
Meteor 2-20 4.4 02:14:33 10° N 02:20:40 85° E 02:23:20 36° SSE
Cosmos 1745 Rocket 3.8 02:20:04 60° SSW 02:21:13 80° WNW 02:27:24 10° N
ERS-2 3.2 02:18:50 10° NNE 02:21:15 41° NE 02:21:15 41° NE
CZ-2C R/B 4.2 02:18:24 10° NE 02:22:23 26° E 02:25:47 13° SE
MSX 3.7 02:17:25 10° NNE 02:23:13 81° WNW 02:24:15 61° SW
IRS-1D 4.4 02:18:33 10° NNE 02:23:16 42° E 02:25:14 29° SSE
Resurs 1-4 Rocket 2.4 02:18:49 10° N 02:23:56 49° WNW 02:24:06 48° WNW
Meteor 1-25 Rocket 4.2 02:20:11 10° NNW 02:25:53 84° ENE 02:28:15 37° SSE
Cosmos-2242 3.4 02:26:46 54° NNW 02:26:46 54° NNW 02:30:24 10° N
Cosmos 2181 Rocket 4.3 02:21:14 10° N 02:27:39 69° ENE 02:34:02 10° SSE
Cosmos 1812 Rocket 3.9 02:30:28 53° NW 02:30:28 53° NW 02:34:10 10° N
CZ-4 R/B 3.8 02:24:52 10° NNE 02:29:54 73° WNW 02:30:17 69° WSW
YAOGAN 11 3.9 02:31:45 86° ESE 02:31:50 87° ENE 02:36:08 10° NNW
ATLAS CENTAUR R/B 1.9 02:31:42 54° SE 02:31:50 54° SE 02:36:05 10° NE
Cosmos 1867 3.5 02:26:23 10° NW 02:31:54 90° NE 02:37:22 10° SE
SL-16 R/B 3.1 02:33:19 39° W 02:33:19 39° W 02:38:47 10° NNW
Cosmos 1709 Rocket 3.9 02:30:50 44° S 02:32:58 85° E 02:39:11 10° NNE
IRIDIUM 104 4.2 02:36:01 63° SW 02:36:40 71° W 02:41:54 10° N
Okean 3 Rocket 3.7 02:32:49 10° N 02:37:12 70° ENE 02:38:38 41° SSE
Cosmos 2297 3.7 02:37:31 55° WSW 02:38:44 72° NW 02:44:28 10° NNE
IDEFIX/ARIANE 42P 2.8 02:35:21 10° N 02:40:20 48° WNW 02:40:48 47° W
Cosmos 1666 3.7 02:37:31 10° NNW 02:39:52 35° NNW 02:39:52 35° NNW
Iridium 2 4.3 02:45:18 43° NNW 02:45:18 43° NNW 02:47:59 10° N
Meteor 2-20 Rocket 4.3 02:38:48 10° NNW 02:44:56 90° W 02:49:47 17° S
ARGOS Delta rocket 3.6 02:43:37 45° SSE 02:44:57 85° E 02:49:24 10° N
IRIDIUM 114 4.3 02:45:09 55° WSW 02:45:50 60° W 02:51:02 10° N
Cosmos 1782 3.2 02:48:59 45° SE 02:49:51 57° E 02:53:44 10° NNE
Cosmos 921 Rocket 3.0 02:54:37 60° SW 02:55:23 81° WNW 02:59:56 10° NNE
ATLAS 5 CENTAUR R/B 1.9 02:55:37 42° NW 02:56:07 45° NNW 03:00:21 10° NE
Cosmos 1933 3.5 02:55:18 48° SSE 02:56:18 71° E 03:00:21 10° NNE
ALOS 2.3 02:52:41 10° NNE 02:57:21 75° ESE 02:59:15 36° S
Helios 1A 2.9 02:59:07 17° SSE 03:02:14 81° ENE 03:06:24 10° NNW
GEOS 3 Rocket 3.5 02:57:28 10° SE 03:02:42 72° SW 03:08:03 10° NW
SeaSat 1 2.4 02:58:43 10° NNE 03:03:39 73° NW 03:05:14 43° SW
Cosmos 1842 Rocket 3.9 03:03:55 24° S 03:06:26 61° E 03:10:45 10° NNE
Cosmos 1441 Rocket 4.3 03:10:38 29° NW 03:10:38 29° NW 03:13:34 10° N
USA 281 4.1 03:04:03 10° ESE 03:10:20 51° NE 03:16:40 10° NNW
TIMED 4.4 03:09:13 10° NNW 03:13:32 63° WSW 03:17:49 10° SSE
Cosmos 2074 Rocket 4.2 03:11:17 10° S 03:17:32 72° E 03:23:49 10° NNE
Cosmos 1766 Rocket 4.1 03:15:19 10° NNW 03:19:27 36° W 03:19:35 36° W
NOSS 2-1 (E) 4.0 03:16:32 10° NW 03:20:25 64° NE 03:25:44 10° ESE
Cosmos 2369 Rocket 2.3 03:18:45 33° WSW 03:21:11 60° NW 03:26:46 10° NNE
Envisat 4.0 03:16:46 10° NNE 03:21:39 44° E 03:26:30 10° S
Cosmos 972 Rocket 4.4 03:16:14 10° NNW 03:22:51 88° ENE 03:28:40 10° SSE
Lacrosse 4 Rocket 3.9 03:20:50 10° NW 03:22:51 13° NNW 03:24:52 10° NNE
Lacrosse 5 1.8 03:20:38 34° WSW 03:22:52 82° NNW 03:28:00 10° ENE
Cosmos 1500 Rocket 3.6 03:18:56 10° N 03:23:16 76° ENE 03:27:35 10° SSE
Cosmos 2297 Rocket 3.3 03:18:01 10° NNW 03:23:30 47° NE 03:28:58 10° ESE
ADEOS II 3.2 03:22:32 10° N 03:26:57 28° WNW 03:28:33 24° W
SL-27 R/B 2.3 03:23:54 10° NNW 03:27:07 74° ENE 03:30:17 10° SSE
Meteor 1-26 Rocket 4.2 03:23:17 15° S 03:27:56 88° ESE 03:33:46 10° NNE
Timation 1 Rocket 4.4 03:22:50 10° NW 03:28:42 55° WSW 03:34:31 10° S
YAOGAN 6 3.5 03:25:35 10° NNE 03:28:59 45° E 03:32:24 10° S
Cosmos 1805 Rocket 4.0 03:25:32 10° N 03:29:57 65° ENE 03:34:23 10° SSE
BREEZE-M DEB (TANK) 3.3 03:30:12 30° WSW 03:32:05 51° S 03:34:40 10° ESE
USA 40 PKM 4.4 03:32:31 34° WSW 03:33:56 77° NNW 03:38:48 10° ENE
Cosmos 44 3.1 03:32:23 31° SW 03:34:29 77° NW 03:39:16 10° NE
Cosmos 1242 Rocket 3.2 03:32:13 10° NNW 03:34:58 32° WNW 03:34:58 32° WNW
Cosmos 1484 Rocket 3.9 03:32:12 10° NNE 03:35:47 41° E 03:39:22 10° S
CZ-2C R/B 3.1 03:31:10 10° NNE 03:35:56 68° ESE 03:40:45 10° S
BREEZE-M DEB (TANK) 3.9 03:32:32 23° WSW 03:36:26 47° S 03:39:23 10° E
ATLAS 2AS CENTAUR R/B 3.7 03:30:37 10° NW 03:37:35 47° NNE 03:44:07 10° E
FENGYUN 3A 4.0 03:33:06 10° N 03:38:18 48° WNW 03:41:22 23° SW
Cosmos 2227 Rocket 3.6 03:34:23 10° NNW 03:39:45 41° NE 03:45:05 10° ESE
Cosmos 807 4.2 03:39:39 21° S 03:41:26 75° E 03:44:35 10° NNE
CZ-2C R/B 3.1 03:39:20 10° SSW 03:44:37 41° W 03:49:52 10° NNW
Cosmos 1656 Rocket 4.2 03:41:48 24° WSW 03:44:45 44° NW 03:50:02 10° NNE
Cosmos 2221 3.1 03:45:02 26° WSW 03:46:51 38° WNW 03:50:57 10° N
Cosmos 2278 Rocket 4.3 03:44:36 10° NW 03:48:00 16° NNW 03:51:25 10° NNE
Cosmos 923 Rocket 3.9 03:44:03 18° SSW 03:48:01 81° WNW 03:53:16 10° NNE
Helios 1B rocket 4.2 03:44:40 10° NNE 03:48:19 32° E 03:51:55 10° SSE
Cosmos 1943 Rocket 3.8 03:49:05 13° WNW 03:52:40 22° NNW 03:56:57 10° NNE
ERS-2 4.0 03:52:45 10° NNW 03:54:40 14° WNW 03:55:04 14° WNW
Cosmos 1812 3.8 03:54:03 23° W 03:55:04 26° WNW 03:58:18 10° N
NOSS 3-4 (A) 3.8 03:49:24 10° NW 03:56:06 62° SW 04:03:43 10° SSE
NOSS 3-4 (C) 3.8 03:49:31 10° NW 03:56:12 62° SW 04:03:51 10° SSE
Cosmos 1515 4.0 03:52:52 10° S 03:56:33 65° E 04:00:14 10° NNE
Cosmos 1680 Rocket 3.5 03:51:50 12° SSW 03:56:43 89° WNW 04:02:03 10° NNE
Genesis I 4.3 03:53:39 11° SSW 03:57:08 41° SE 04:00:50 10° NE
CZ-2D R/B 4.1 03:55:08 10° NNW 03:57:33 13° NW 03:59:55 10° WNW
Meteor 1-14 Rocket 4.2 03:54:58 10° NNW 04:00:25 59° W 04:05:52 10° S
CZ-2C R/B 2.5 03:56:14 10° N 04:00:51 53° WNW 04:05:09 13° SW
IRS-1D 4.2 03:57:57 10° N 04:02:26 35° WNW 04:05:41 17° WSW
Resurs 1-4 Rocket 4.2 04:00:34 10° NNW 04:02:35 12° NW 04:04:37 10° WNW
ARIANE 5 R/B 2.8 03:59:26 10° NNE 04:04:37 72° ESE 04:09:49 10° S
Cosmos 1371 Rocket 4.2 04:00:00 10° NW 04:04:55 45° WSW 04:09:48 10° S
Cosmos 1461 4.2 04:01:22 10° SSW 04:05:32 42° ESE 04:09:51 10° NE
NOSS 3-3 (A) 4.0 04:02:11 17° WSW 04:06:51 74° NW 04:13:44 10° NE
NOSS 3-3 (C) 4.0 04:02:17 17° WSW 04:06:57 74° NW 04:13:50 10° NE
Cosmos 2112 Rocket 4.0 04:01:54 10° SSW 04:07:09 86° WNW 04:12:29 10° NNE
Cosmos 1151 Rocket 3.8 04:04:30 10° S 04:08:44 54° E 04:12:58 10° NNE
Cosmos 1339 Rocket 4.5 04:02:51 10° N 04:08:59 89° E 04:15:08 10° S
Meteor 2-6 Rocket 4.4 04:04:25 10° SSW 04:10:24 86° WNW 04:16:24 10° NNE
ATLAS CENTAUR R/B 2.4 04:07:24 16° W 04:10:28 37° NNW 04:14:25 10° NE
NOSS 2-1 (C) 3.8 04:08:28 10° NW 04:12:31 61° SW 04:18:06 10° SSE
Cosmos 2056 Rocket 3.8 04:07:57 10° NW 04:12:47 41° WSW 04:17:41 10° S
DELTA 2 DEB (DPAF) 4.4 04:08:48 10° SSE 04:13:10 74° ENE 04:17:34 10° NNW
Orbus 7S? 4.2 04:06:03 10° WNW 04:13:23 49° SW 04:16:53 10° SSE
Cosmos 2184 Rocket 4.1 04:08:09 10° SSW 04:14:09 53° WNW 04:20:13 10° N
NOSS 2-1 (D) 3.8 04:12:59 10° NW 04:16:57 55° SW 04:22:19 10° SSE
Cosmos 1666 Rocket 3.7 04:13:04 10° N 04:17:24 76° ENE 04:21:44 10° SSE
SKYMED 2 4.3 04:15:08 10° SSE 04:19:24 59° ENE 04:23:41 10° N
Sich 1 3.3 04:17:43 10° NNW 04:22:00 49° W 04:26:14 10° SSW
Cosmos 2263 Rocket 4.1 04:17:54 10° NNW 04:22:53 31° NE 04:27:51 10° ESE
Cosmos 1743 2.6 04:21:00 10° NNW 04:24:43 63° W 04:28:24 10° S
Cosmos 1782 4.4 04:24:21 13° W 04:26:19 18° WNW 04:29:01 10° NNW
Cosmos 1743 Rocket 4.2 04:23:22 10° NNW 04:27:23 33° W 04:31:24 10° SSW
SL-19 R/B 4.2 04:25:19 10° NNE 04:30:32 60° WNW 04:35:38 10° SW
Cosmos 1110 Rocket 4.1 04:25:46 10° NNW 04:30:59 82° ENE 04:36:11 10° SSE
Cosmos 1633 Rocket 3.1 04:27:56 10° N 04:32:23 87° ENE 04:36:48 10° S
IKONOS-2 4.4 04:28:53 10° SSE 04:33:06 80° WSW 04:37:20 10° NNW
ALOS 3.8 04:30:51 10° N 04:34:12 20° WNW 04:37:33 10° WSW
COSMOS 2455 3.9 04:29:24 10° S 04:35:09 48° ESE 04:40:56 10° NE
USA 32 4.2 04:30:49 10° NNW 04:35:55 52° W 04:40:59 10° SSW
Cosmos 2154 Rocket 4.3 04:30:32 10° SW 04:36:35 49° WNW 04:42:39 10° N
SeaSat 1 4.0 04:36:50 10° NNE 04:40:32 22° NW 04:44:14 10° W
ATLAS 5 CENTAUR R/B 3.4 04:38:05 10° WNW 04:41:29 24° N 04:45:24 10° NE
Cosmos 1331 Rocket 4.0 04:39:23 10° NNW 04:44:38 86° WSW 04:49:54 10° SSE
Meteor 1-27 Rocket 4.0 04:39:34 10° S 04:45:22 80° E 04:51:05 10° NNE
CZ-2D R/B 3.6 04:44:13 10° N 04:48:29 60° WNW 04:52:38 10° SSW
GP-B 3.4 04:45:01 10° N 04:49:17 48° W 04:53:31 10° SSW
IRS-1C 4.4 04:44:34 10° N 04:49:44 51° WNW 04:54:53 10° SW
Cosmos 1452 Rocket 3.6 04:45:09 10° NNW 04:50:22 58° WSW 04:55:32 10° S
Cosmos 1437 Rocket 2.7 04:46:47 10° NNW 04:50:38 59° W 04:54:22 10° S
DMSP B5D2-2 4.3 04:45:53 10° S 04:50:56 48° W 04:56:00 10° NNW
Cosmos 1697 Rocket 4.3 04:46:15 10° S 04:51:23 38° ESE 04:56:31 10° NE
